This demonstration page uses our WeatherBlox Daily Observations layout. Learn more.

Left ArrowRight Arrow

34.02893, -84.19858

Hourly Observations for February 18, 2017

Temp ( °F °C ) Dew Point ( °F °C ) Humidity (%) Winds ( mph kmh ) Pressure ( in mb ) Visibility ( mi km ) Precip ( " mm )
12:53 am 00:53 Clear 45 7.2 31 -0.6 58 58 Calm 29.97 1015 10 16 0.00 0.00
1:53 am 01:53 Clear 47 8.3 31 -0.6 54 54 Calm 29.98 1015 10 16 0.00 0.00
2:53 am 02:53 Clear 45 7.2 33 0.6 63 63 Calm 29.97 1015 10 16 0.00 0.00
3:53 am 03:53 Clear 46 7.8 33 0.6 61 61 Calm 29.96 1015 10 16 0.00 0.00
4:53 am 04:53 Clear 46 7.8 35 1.7 66 66 Calm 29.98 1015 10 16 0.00 0.00
5:53 am 05:53 Clear 47 8.3 37 2.8 69 69 Calm 29.96 1015 10 16 0.00 0.00
6:53 am 06:53 Mostly Cloudy 48 8.9 37 2.8 66 66 Calm 29.98 1015 10 16 0.00 0.00
7:53 am 07:53 Mostly Cloudy 48 8.9 38 3.3 68 68 SW 3 6 30.00 1016 10 16 0.00 0.00
8:53 am 08:53 Cloudy 50 10 37 2.8 61 61 N 5 7 29.97 1015 10 16 0.00 0.00
9:53 am 09:53 Cloudy 51 10.6 39 3.9 64 64 Calm 30.00 1016 10 16 0.00 0.03
10:35 am 10:35 Cloudy with Rain 50 10 43 6.1 77 77 Calm 30.00 1016 3 4 0.04 1.02
10:43 am 10:43 Cloudy with Light Rain 49 9.4 44 6.7 83 83 Calm 30.00 1016 7 11 0.05 1.27
10:53 am 10:53 Cloudy with Rain 49 9.4 45 7.2 86 86 SSE 3 6 30.00 1016 7 11 0.07 1.78
11:44 am 11:44 Cloudy with Light Rain 48 9 45 7 87 87 Calm 30.00 1016 3 4 0.00 0.00
11:53 am 11:53 Cloudy with Light Rain 49 9.4 45 7.2 86 86 Calm 30.00 1016 3 4 0.06 1.52
12:02 pm 12:02 Cloudy with Light Rain 48 9 45 7 87 87 E 3 6 30.00 1016 3 5 0.00 0.00
12:53 pm 12:53 Cloudy with Haze 52 11.1 46 7.8 80 80 E 3 6 29.97 1015 3 5 0.01 0.25
1:53 pm 13:53 Cloudy 53 11.7 48 8.9 83 83 S 6 9 29.98 1015 8 13 0.00 0.00
2:49 pm 14:49 Cloudy 55 13 48 9 77 77 SSW 7 11 29.94 1014 10 16 0.00 0.00
2:53 pm 14:53 Cloudy 57 13.9 48 8.9 72 72 S 7 11 29.96 1014 10 16 0.00 0.00
3:53 pm 15:53 Cloudy 58 14.4 48 8.9 70 70 SSE 5 7 29.93 1014 10 16 0.00 0.00
4:53 pm 16:53 Mostly Cloudy 58 14.4 47 8.3 67 67 S 6 9 29.93 1014 10 16 0.00 0.00
5:53 pm 17:53 Cloudy 58 14.4 47 8.3 67 67 S 3 6 29.93 1014 10 16 0.00 0.00
6:23 pm 18:23 Cloudy 58 14.4 48 8.9 70 70 Calm 29.94 1014 10 16 0.00 0.00
6:53 pm 18:53 Cloudy 57 13.9 48 8.9 72 72 Calm 29.94 1014 10 16 0.00 0.00
7:13 pm 19:13 Cloudy 57 13.9 48 8.9 72 72 Calm 29.94 1014 10 16 0.00 0.00
7:53 pm 19:53 Cloudy 56 13.3 48 8.9 75 75 Calm 29.96 1015 10 16 0.00 0.00
8:10 pm 20:10 Cloudy 55 13 48 9 77 77 Calm 29.97 1015 9 14 0.00 0.00
8:21 pm 20:21 Cloudy 55 12.8 49 9.4 80 80 Calm 29.97 1015 10 16 0.00 0.00
8:53 pm 20:53 Cloudy 56 13.3 49 9.4 77 77 Calm 29.97 1015 10 16 0.00 0.00
9:26 pm 21:26 Cloudy 55 13 48 9 77 77 Calm 29.97 1015 10 16 0.00 0.00
9:53 pm 21:53 Cloudy 55 12.8 49 9.4 80 80 Calm 29.99 1016 10 16 0.00 0.00
10:42 pm 22:42 Cloudy 55 13 50 10 82 82 Calm 29.97 1015 10 16 0.00 0.00
10:53 pm 22:53 Cloudy 55 12.8 49 9.4 80 80 Calm 29.98 1015 10 16 0.00 0.00
11:53 pm 23:53 Mostly Cloudy 54 12.2 49 9.4 83 83 Calm 29.98 1015 10 16 0.00 0.00

Powered by AerisWeather